Weather History for Richlands, VA

Change the Weather History Date:

Sunday, February 10, 2013

  Actual Average (KBLF) Record (KBLF)
Temperature  
Mean Temperature 47 °F 36 °F  
Max Temperature 57 °F 45 °F 67 °F (2009)
Min Temperature 37 °F 28 °F 0 °F (1979)
Degree Days  
Heating Degree Days 18 29  
Month to date heating degree days 294  
Since 1 July heating degree days 3014  
Cooling Degree Days 0 0  
Month to date cooling degree days 0  
Year to date cooling degree days 0  
Moisture  
Dew Point 19 °F    
Average Humidity 41    
Maximum Humidity 100    
Minimum Humidity 17    
Precipitation  
Precipitation 0.00 in 0.09 in 1.12 in (1990)
Month to date precipitation 0.95  
Year to date precipitation 3.85  
Snow  
Snow 0.00 in - - ()
Month to date snowfall  
Since 1 July snowfall  
Snow Depth -    
Sea Level Pressure  
Sea Level Pressure 30.15 in    
Wind  
Wind Speed 5 mph (SE)    
Max Wind Speed 15 mph    
Max Gust Speed 25 mph    
Visibility 10 miles    
Events      
T = Trace of Precipitation, MM = Missing Value Source: NWS Daily Summary

Daily Weather History Graph

Daily Weather History Graph

Search for Another Location

Airport:

Trip Planner

Search our weather history database for the weather conditions in past years. The results will help you decide how hot, cold, wet, or windy it might be!

Date:

Astronomy

Feb. 10, 2013 Rise Set
Actual Time 7:21 AM EST 6:02 PM EST
Civil Twilight 6:54 AM EST 6:29 PM EST
Nautical Twilight 6:23 AM EST 6:59 PM EST
Astronomical Twilight 5:53 AM EST 7:30 PM EST
Moon 7:11 AM EST (2/10) 6:49 PM EST (2/10)
Length of Visible Light 11h 34m
Length of Day
10h 41m
New Moon, 0% of the Moon is Illuminated
Feb 10
New Moon
Feb 17
First Quarter
Feb 25
Full
Mar 4
Last Quarter
Mar 11
New

Hourly Weather History & Observations

Time (EST) Temp. Windchill Dew Point Humidity Pressure Visibility Wind Dir Wind Speed Gust Speed Precip Events Conditions
12:15 AM 39.2 °F - 5.0 °F 24% 30.22 in 10.0 mi Calm Calm - N/A   Clear
12:35 AM 39.2 °F 37.0 °F 8.6 °F 28% 30.21 in 10.0 mi ESE 3.5 mph - N/A   Clear
12:55 AM 39.2 °F 35.9 °F 8.6 °F 28% 30.20 in 10.0 mi SE 4.6 mph - N/A   Clear
1:15 AM 39.2 °F 35.9 °F 8.6 °F 28% 30.20 in 10.0 mi ESE 4.6 mph - N/A   Clear
1:35 AM 39.2 °F 35.9 °F 6.8 °F 26% 30.20 in 10.0 mi SE 4.6 mph - N/A   Clear
1:55 AM 39.2 °F 35.0 °F 8.6 °F 28% 30.20 in 10.0 mi SE 5.8 mph - N/A   Clear
2:15 AM 37.4 °F 34.9 °F 10.4 °F 33% 30.21 in 10.0 mi ESE 3.5 mph - N/A   Clear
2:35 AM 39.2 °F - 8.6 °F 28% 30.21 in 10.0 mi Calm Calm - N/A   Clear
2:55 AM 37.4 °F 34.9 °F 10.4 °F 33% 30.21 in 10.0 mi Variable 3.5 mph - N/A   Clear
3:35 AM 37.4 °F 33.8 °F 12.2 °F 36% 30.19 in 10.0 mi East 4.6 mph - N/A   Clear
3:55 AM 37.4 °F 34.9 °F 14.0 °F 38% 30.19 in 10.0 mi ESE 3.5 mph - N/A   Clear
4:15 AM 37.4 °F 33.8 °F 14.0 °F 38% 30.19 in 10.0 mi ESE 4.6 mph - N/A   Clear
4:35 AM 39.2 °F 37.0 °F 14.0 °F 36% 30.19 in 10.0 mi ESE 3.5 mph - N/A   Clear
4:55 AM 39.2 °F 35.9 °F 14.0 °F 36% 30.19 in 10.0 mi SE 4.6 mph - N/A   Clear
5:15 AM 39.2 °F 35.0 °F 12.2 °F 33% 30.19 in 10.0 mi SE 5.8 mph - N/A   Clear
5:35 AM 39.2 °F 35.9 °F 14.0 °F 36% 30.20 in 10.0 mi SE 4.6 mph - N/A   Clear
5:55 AM 39.2 °F 37.0 °F 14.0 °F 36% 30.20 in 10.0 mi ESE 3.5 mph - N/A   Clear
6:15 AM 39.2 °F - 14.0 °F 36% 30.21 in 10.0 mi Calm Calm - N/A   Clear
6:35 AM 39.2 °F 37.0 °F 12.2 °F 33% 30.22 in 10.0 mi Variable 3.5 mph - N/A   Clear
6:55 AM 39.2 °F 35.9 °F 15.8 °F 39% 30.22 in 10.0 mi ESE 4.6 mph - N/A   Clear
7:15 AM 39.2 °F 35.9 °F 14.0 °F 36% 30.23 in 10.0 mi ESE 4.6 mph - N/A   Clear
7:35 AM 39.2 °F 35.9 °F 15.8 °F 39% 30.23 in 10.0 mi Variable 4.6 mph - N/A   Clear
7:55 AM 41.0 °F 36.4 °F 10.4 °F 29% 30.24 in 10.0 mi Variable 6.9 mph - N/A   Clear
8:15 AM 39.2 °F 35.9 °F 15.8 °F 39% 30.24 in 10.0 mi Variable 4.6 mph - N/A   Clear
8:35 AM 39.2 °F 35.9 °F 15.8 °F 39% 30.24 in 10.0 mi East 4.6 mph - N/A   Clear
8:55 AM 44.6 °F 42.2 °F 17.6 °F 34% 30.22 in 10.0 mi Variable 4.6 mph - N/A   Clear
9:15 AM 42.8 °F 41.1 °F 15.8 °F 34% 30.22 in 10.0 mi ESE 3.5 mph - N/A   Clear
9:35 AM 44.6 °F 41.4 °F 15.8 °F 31% 30.24 in 10.0 mi Variable 5.8 mph - N/A   Clear
9:55 AM 46.4 °F 41.9 °F 17.6 °F 32% 30.22 in 10.0 mi ESE 9.2 mph - N/A   Clear
10:35 AM 50.0 °F - 17.6 °F 28% 30.23 in 10.0 mi Variable 6.9 mph - N/A   Clear
10:55 AM 50.0 °F - 17.6 °F 28% 30.22 in 10.0 mi SE 6.9 mph - N/A   Clear
11:15 AM 51.8 °F - 17.6 °F 26% 30.21 in 10.0 mi Variable 5.8 mph - N/A   Clear
11:35 AM 51.8 °F - 17.6 °F 26% 30.20 in 10.0 mi SE 8.1 mph - N/A   Clear
11:55 AM 53.6 °F - 15.8 °F 22% 30.20 in 10.0 mi Variable 5.8 mph - N/A   Clear
12:15 PM 55.4 °F - 17.6 °F 23% 30.17 in 10.0 mi Variable 4.6 mph - N/A   Partly Cloudy
12:35 PM 55.4 °F - 15.8 °F 21% 30.15 in 10.0 mi Variable 6.9 mph - N/A   Clear
12:55 PM 55.4 °F - 17.6 °F 23% 30.15 in 10.0 mi SE 5.8 mph - N/A   Clear
1:15 PM 55.4 °F - 15.8 °F 21% 30.14 in 10.0 mi SE 9.2 mph - N/A   Clear
1:35 PM 55.4 °F - 15.8 °F 21% 30.13 in 10.0 mi Variable 3.5 mph - N/A   Clear
1:55 PM 57.2 °F - 12.2 °F 17% 30.10 in 10.0 mi Variable 6.9 mph - N/A   Clear
2:35 PM 55.4 °F - 10.4 °F 17% 30.10 in 10.0 mi SSE 9.2 mph - N/A   Clear
2:55 PM 53.6 °F - 10.4 °F 18% 30.10 in 10.0 mi South 10.4 mph - N/A   Clear
3:15 PM 51.8 °F - 8.6 °F 18% 30.09 in 10.0 mi South 15.0 mph 25.3 mph N/A   Partly Cloudy
3:35 PM 51.8 °F - 8.6 °F 18% 30.09 in 10.0 mi South 9.2 mph - N/A   Partly Cloudy
3:55 PM 51.8 °F - 8.6 °F 18% 30.08 in 10.0 mi SSE 9.2 mph - N/A   Partly Cloudy
4:15 PM 51.8 °F - 10.4 °F 19% 30.07 in 10.0 mi SE 9.2 mph 23.0 mph N/A   Partly Cloudy
4:35 PM 51.8 °F - 12.2 °F 21% 30.07 in 10.0 mi SSE 10.4 mph - N/A   Scattered Clouds
4:55 PM 48.2 °F - 12.2 °F 24% 30.08 in 10.0 mi SSE 10.4 mph - N/A   Scattered Clouds
5:15 PM 48.2 °F - 12.2 °F 24% 30.09 in 10.0 mi SSE 6.9 mph - N/A   Mostly Cloudy
5:35 PM 48.2 °F - 12.2 °F 24% 30.10 in 10.0 mi SSE 11.5 mph - N/A   Mostly Cloudy
5:55 PM 48.2 °F - 12.2 °F 24% 30.11 in 10.0 mi South 8.1 mph - N/A   Scattered Clouds
6:15 PM 46.4 °F 41.1 °F 15.8 °F 29% 30.12 in 10.0 mi South 11.5 mph - N/A   Partly Cloudy
6:35 PM 44.6 °F 38.4 °F 24.8 °F 46% 30.14 in 6.0 mi South 12.7 mph - N/A   Mostly Cloudy
6:55 PM 41.0 °F 35.8 °F 30.2 °F 65% 30.15 in 5.0 mi South 8.1 mph - N/A   Scattered Clouds
7:15 PM 39.2 °F 34.2 °F 37.4 °F 93% 30.13 in 6.0 mi Variable 6.9 mph - N/A   Unknown
7:35 PM 37.4 °F 34.9 °F 37.4 °F 100% 30.10 in 6.0 mi Variable 3.5 mph - N/A   Unknown
7:55 PM 39.2 °F 37.0 °F 39.2 °F 100% 30.09 in 10.0 mi Variable 3.5 mph - N/A   Unknown
8:35 PM 41.0 °F 34.7 °F 39.2 °F 93% 30.05 in 10.0 mi SSE 10.4 mph 21.9 mph N/A   Scattered Clouds
8:55 PM 42.8 °F 37.5 °F 41.0 °F 93% 30.04 in 10.0 mi SE 9.2 mph - N/A   Mostly Cloudy
9:15 PM 41.0 °F 38.0 °F 39.2 °F 93% 30.04 in 10.0 mi Variable 4.6 mph - N/A   Overcast
9:35 PM 44.6 °F 39.2 °F 41.0 °F 87% 30.05 in 10.0 mi South 10.4 mph 23.0 mph N/A   Overcast
9:55 PM 44.6 °F 40.7 °F 42.8 °F 93% 30.03 in 10.0 mi Variable 6.9 mph - N/A   Overcast
10:15 PM 44.6 °F 40.7 °F 42.8 °F 93% 30.02 in 10.0 mi Variable 6.9 mph - N/A   Mostly Cloudy
10:35 PM 46.4 °F 40.7 °F 42.8 °F 87% 30.02 in 10.0 mi South 12.7 mph 19.6 mph N/A   Partly Cloudy
10:55 PM 46.4 °F 42.4 °F 42.8 °F 87% 30.02 in 10.0 mi South 8.1 mph - N/A   Mostly Cloudy
11:55 PM 46.4 °F 42.9 °F 44.6 °F 93% 29.99 in 10.0 mi Variable 6.9 mph - N/A   Mostly Cloudy